Location: Unspecified
(0.0000°N, 0.0000°E)
Time: 19:02:10
(UTC+00:00)

STARLINK-11630 [DTC] - Visible Passes

Search period start: 17 April 2026 00:00
Search period end: 27 April 2026 00:00
Orbit: 355 x 358 km, 43.0° (Epoch: 17 April)

Date Brightness Start Highest point End Pass type
(mag) Time Alt. Az. Time Alt. Az. Time Alt. Az.
23 Apr ? 19:19:24 10° NW 19:21:27 38° NNW 19:21:27 38° NNW visible
24 Apr ? 19:45:54 10° W 19:46:48 15° WSW 19:46:48 15° WSW visible
25 Apr ? 18:34:54 10° NW 18:37:47 89° W 18:40:23 12° SE visible
26 Apr ? 19:01:34 10° WSW 19:03:09 14° SW 19:04:43 10° SSW visible
